Location: Grums
(59.3529°N, 13.1129°E)
Time: 10:06:34
(UTC+02:00)

Nauka - Pass Details

Date: 02 October 2021
Orbit: 417 x 423 km, 51.6° (Epoch: 24 October)

Event Time Altitude Azimuth Distance (km) Brightness Sun altitude
Rises 19:28:41 0° 262° (W) 2,366 ? -7.4°
Reaches altitude 10° 19:31:26 10° 238° (WSW) 1,501 ? -7.7°
Maximum altitude 19:33:25 15° 202° (SSW) 1,236 ? -8.0°
Drops below altitude 10° 19:35:24 10° 166° (SSE) 1,500 ? -8.2°
Enters shadow 19:37:28 - 146° (SE) 2,123 ? -8.5°
